Starlink 31987

operational
NORAD ID: 60017 Int'l Des: 2024-111 Owner: SPXS Country: US Constellation: starlink
LEOCIRCULAR

About Starlink 31987

Description loading...

Live Position

Loading 3D Globe...

Upcoming Passes

Altitude History

Altitude vs Time

uPlot chart will show altitude changes over time

Two-Line Element Set

1 60017U 24111B 26035.79528531 -.00000066 00000-0 98983-5 0 9994
2 60017 53.1594 228.6715 0001357 87.9230 272.1927 15.30190664 93950
Epoch: Feb 4, 2026 • Age: 16 hours

Current Status

Altitude 480.8 km
Velocity 7.63 km/s
Sub-Earth Point 52.95°N, 21.54°E
Launch Date Jun 8, 2024
Age 1.6 years
Type internet

Technical Details

Classification Payload
Mass 730.00 kg
Dry Mass 700.00 kg
Total Mass 730.00 kg
Length 0.30 m
Diameter 4.10 m
Span 29.00 m
Shape Box + pan
Manufacturer SPXS
Bus Type Starlink V2M
Phase Status In Orbit
Owner/State SPXS/US

Large Constellations

Loading constellations...